{"data":{"norad_id":57636,"intl_designator":"2023-122E","name":"STARLINK-30330","alt_names":[],"object_type":"PAYLOAD","status":"ACTIVE","operator":null,"country":"US","launch_date":"2023-08-17","launch_site_code":"AFETR","launch_vehicle":null,"mission":null,"orbit_class":"UNKNOWN","rcs_meters":null,"size_class":null,"mass_kg":null,"dimensions":null,"purposes":["comms"],"wikipedia_slug":null,"has_3d_model":false,"image_url":null,"decayed_at":null,"tle_current":{"epoch":"2026-05-25T00:00:20.627136Z","epoch_age_seconds":71708,"freshness":"FRESH","line1":"1 57636U 23122E   26145.00023874  .00002543  00000+0  10188-3 0  9993","line2":"2 57636  43.0018  21.8862 0001517 272.9773  87.0905 15.27592972153875","mean_motion":15.27592972,"eccentricity":0.0001517,"inclination_deg":43.0018,"raan_deg":21.8862,"arg_perigee_deg":272.9773,"mean_anomaly_deg":87.0905,"bstar":0.00010188,"rev_number":15387,"period_min":94.265948220139,"perigee_km":481.96941744152,"apogee_km":484.05108951822,"semimajor_km":6861.1472534799,"source":"CELESTRAK","updated_at":"2026-05-25T13:38:18.362696Z"}}}